FW5732 Weather Reports


time (UTC)temp
C
wind
direction
speed
KPH
gust
KPH
rain 1hr
cm
rain 24hr
cm
rain mn
cm
humidity
%
barometer
mb
20260506090537 17 0.0 0.0 0.00 0.00 0.00 68 1006.9
20260506085556 17 0.0 0.0 0.00 0.00 0.00 69 1006.8
20260506084537 16 0.0 0.0 0.00 0.00 0.00 71 1006.8
20260506083616 16 0.0 0.0 0.00 0.00 0.00 72 1006.7
20260506081516 15 0.0 0.0 0.00 0.00 0.00 76 1006.6
20260506080537 15 0.0 0.0 0.00 0.00 0.00 77 1006.7
20260506072516 14 0.0 0.0 0.00 0.00 0.00 80 1007.1
20260506071516 13 0.0 0.0 0.00 0.00 0.00 82 1007.0
20260506070556 13 0.0 0.0 0.00 0.00 0.00 84 1006.9
20260506062516 12 0.0 0.0 0.00 0.00 0.00 88 1006.7
20260506061536 11 0.0 0.0 0.00 0.00 0.00 89 1006.6
20260506060516 11 0.0 0.0 0.00 0.00 0.00 89 1006.7
20260506050516 8 0.0 0.0 0.00 0.00 0.00 92 1006.4
20260506044516 7 0.0 0.0 0.00 0.00 0.00 92 1006.4
20260506043536 7 0.0 0.0 0.00 0.00 0.00 91 1006.5
20260506042519 7 0.0 0.0 0.00 0.00 0.00 92 1006.8
20260506041656 7 0.0 0.0 0.00 0.00 0.00 91 1006.8
20260506040515 7 0.0 0.0 0.00 0.00 0.00 91 1006.7
20260506035516 7 0.0 0.0 0.00 0.00 0.00 91 1006.9
20260506034515 7 0.0 0.0 0.00 0.00 0.00 91 1006.9
20260506033556 7 0.0 0.0 0.00 0.00 0.00 91 1007.0
20260506032515 7 0.0 0.0 0.00 0.00 0.00 91 1007.2
20260506031515 7 0.0 0.0 0.00 0.00 0.00 91 1007.2
20260506030536 8 0.0 0.0 0.00 0.00 0.00 91 1006.9
20260506025515 8 0.0 0.0 0.00 0.00 0.00 91 1007.1
20260506024518 8 0.0 0.0 0.00 0.00 0.00 91 1007.1
20260506023517 8 0.0 0.0 0.00 0.00 0.00 91 1007.4
20260506022517 8 0.0 0.0 0.00 0.00 0.00 90 1007.2
20260506021557 8 0.0 0.0 0.00 0.00 0.00 90 1007.2
20260506020517 8 0.0 0.0 0.00 0.00 0.00 90 1007.3
20260506015517 8 0.0 0.0 0.00 0.00 0.00 90 1007.5
20260506014538 8 0.0 0.0 0.00 0.00 0.00 90 1007.5
20260506013537 8 0.0 0.0 0.00 0.00 0.00 90 1007.4
20260506012618 9 0.0 0.0 0.00 0.00 0.00 90 1007.7
20260506011517 9 0.0 0.0 0.00 0.00 0.00 90 1007.7
20260506010517 9 0.0 0.0 0.00 0.00 0.00 90 1007.6
20260506005517 9 0.0 0.0 0.00 0.00 0.00 90 1007.4
20260506004537 9 0.0 0.0 0.00 0.00 0.00 90 1007.4
20260506003537 10 0.0 0.0 0.00 0.00 0.00 89 1007.6
20260506002517 10 0.0 0.0 0.00 0.00 0.00 90 1007.7
20260506001557 10 0.0 0.0 0.00 0.00 0.00 90 1007.5
20260506000517 10 0.0 0.0 0.00 0.00 0.00 89 1007.7
20260505235537 10 0.0 0.0 0.00 0.00 0.00 89 1007.9
20260505190516 13 0.0 0.0 0.00 0.00 0.00 82 1007.3
20260505185536 14 0.0 0.0 0.00 0.00 0.00 81 1007.2
20260505183616 14 0.0 0.0 0.00 0.00 0.00 80 1007.1
20260505182516 15 0.0 0.0 0.00 0.00 0.00 79 1006.8
20260505181515 15 0.0 0.0 0.00 0.00 0.00 78 1006.8
20260505180535 15 0.0 0.0 0.00 0.00 0.00 77 1006.8
20260505175515 16 0.0 0.0 0.00 0.00 0.00 74 1006.5
20260505174515 16 0.0 0.0 0.00 0.00 0.00 73 1006.5
20260505173616 16 0.0 0.0 0.00 0.00 0.00 72 1006.7
20260505172537 16 0.0 0.0 0.00 0.00 0.00 73 1006.7
20260505171518 16 0.0 0.0 0.00 0.00 0.00 73 1006.7
20260505170517 16 0.0 0.0 0.00 0.00 0.00 72 1006.7
20260505165517 16 0.0 0.0 0.00 0.00 0.00 70 1006.7
20260505163517 16 0.0 0.0 0.00 0.00 0.00 71 1006.8
20260505161518 16 0.0 0.0 0.00 0.00 0.00 71 1006.9
20260505160537 16 0.0 0.0 0.00 0.00 0.00 71 1006.9
20260505152517 16 0.0 0.0 0.00 0.00 0.00 72 1006.9
20260505151517 16 0.0 0.0 0.00 0.00 0.00 72 1006.9
20260505150557 17 0.0 0.0 0.00 0.00 0.00 71 1006.8
20260505140537 16 0.0 0.0 0.00 0.00 0.00 70 1006.8
20260505124516 20 0.0 0.0 0.00 0.00 0.00 63 1007.1
20260505123557 20 0.0 0.0 0.00 0.00 0.00 61 1007.1